Saranac Lake, NY

12:37 PM EDT on September 19, 2017 (GMT -0400)
Adirondack Regional

Weather History for KSLK - July, 2014

Change the Weather History Date:

Saturday, July 26, 2014

  Actual Average Record
Temperature  
Mean Temperature 58 °F 63 °F  
Max Temperature 74 °F 76 °F 90 °F (1963)
Min Temperature 42 °F 51 °F 34 °F (1976)
Degree Days  
Heating Degree Days 7 3  
Month to date heating degree days 93 78  
Since 1 June heating degree days 260 262  
Since 1 July heating degree days 93 78  
Cooling Degree Days 0 1  
Month to date cooling degree days 38 41  
Year to date cooling degree days 60 70  
Since 1 June cooling degree days 59 67  
Growing Degree Days 6 (Base 50)    
Moisture  
Dew Point 50 °F    
Average Humidity 75    
Maximum Humidity 100    
Minimum Humidity 49    
Precipitation  
Precipitation 0.00 in 0.13 in 1.71 in (1986)
Month to date precipitation 2.19 3.52  
Year to date precipitation 21.13 19.72  
Sea Level Pressure  
Sea Level Pressure 29.92 in    
Wind  
Wind Speed 4 mph (SW)    
Max Wind Speed 15 mph    
Max Gust Speed 22 mph    
Visibility 8 miles    
Events      
T = Trace of Precipitation, MM = Missing Value Source: NWS Daily Summary

Daily Weather History Graph

Daily Weather History Graph

Search for Another Location

Airport or City:

Trip Planner

Search our weather history database for the weather conditions in past years. The results will help you decide how hot, cold, wet, or windy it might be!

Date:

Astronomy

Jul. 26, 2014 Rise Set
Actual Time 5:37 AM EDT 8:28 PM EDT
Civil Twilight 5:03 AM EDT 9:02 PM EDT
Nautical Twilight 4:20 AM EDT 9:45 PM EDT
Astronomical Twilight 3:29 AM EDT 10:35 PM EDT
Moon 5:30 AM EDT (7/26) 7:58 PM EDT (7/26)
Length of Visible Light 15h 59m
Length of Day
14h 51m
Waning Crescent, 0% of the Moon is Illuminated
Jul 26
Waning Crescent
Jul 26
New
Aug 3
First Quarter
Aug 10
Full
Aug 17
Last Quarter

Hourly Weather History & Observations

Time (EDT) Temp. Dew Point Humidity Pressure Visibility Wind Dir Wind Speed Gust Speed Precip Events Conditions
12:51 AM 48.0 °F 46.9 °F 96% 29.98 in 6.0 mi Calm Calm - N/A   Clear
1:51 AM 48.0 °F 46.0 °F 93% 29.96 in 6.0 mi Calm Calm - N/A   Clear
2:51 AM 45.0 °F 44.1 °F 97% 29.96 in 5.0 mi Calm Calm - N/A   Clear
3:51 AM 46.0 °F 45.0 °F 96% 29.95 in 8.0 mi Calm Calm - N/A   Partly Cloudy
4:51 AM 43.0 °F 42.1 °F 97% 29.94 in 8.0 mi Calm Calm - N/A   Clear
5:51 AM 43.0 °F 42.1 °F 97% 29.94 in 5.0 mi Calm Calm - N/A   Clear
6:14 AM 43.0 °F 42.1 °F 97% 29.94 in 2.0 mi Calm Calm - N/A   Partly Cloudy
6:24 AM 44.1 °F 43.0 °F 96% 29.94 in 5.0 mi Calm Calm - N/A   Clear
6:51 AM 48.9 °F 46.0 °F 90% 29.94 in 9.0 mi SSW 3.5 mph - N/A   Clear
7:51 AM 57.9 °F 54.0 °F 87% 29.94 in 10.0 mi SW 8.1 mph - N/A   Clear
8:51 AM 61.0 °F 54.0 °F 78% 29.94 in 10.0 mi WSW 8.1 mph - N/A   Mostly Cloudy
9:51 AM 64.0 °F 54.0 °F 70% 29.94 in 10.0 mi WSW 11.5 mph 18.4 mph N/A   Partly Cloudy
2:51 PM 69.1 °F 54.0 °F 58% 29.91 in 10.0 mi West 4.6 mph - N/A   Overcast
3:51 PM 69.1 °F 55.0 °F 61% 29.90 in 10.0 mi Variable 3.5 mph - N/A   Overcast
4:51 PM 68.0 °F 55.9 °F 65% 29.90 in 10.0 mi Calm Calm - N/A   Overcast
5:51 PM 70.0 °F 55.0 °F 59% 29.87 in 10.0 mi SW 5.8 mph - N/A   Overcast
6:51 PM 69.1 °F 55.0 °F 61% 29.86 in 10.0 mi WSW 8.1 mph - N/A   Mostly Cloudy
7:51 PM 64.9 °F 55.9 °F 73% 29.86 in 10.0 mi SW 5.8 mph - N/A   Mostly Cloudy
8:51 PM 63.0 °F 55.9 °F 78% 29.86 in 10.0 mi SW 3.5 mph - N/A   Mostly Cloudy
9:51 PM 61.0 °F 57.0 °F 87% 29.87 in 10.0 mi WSW 3.5 mph - N/A   Overcast
10:51 PM 62.1 °F 57.0 °F 84% 29.86 in 10.0 mi Calm Calm - N/A   Overcast